Regional Weather Roundup
Issued by NWS

Home | Current Version | Previous Version | Graphics & Text | Print | Product List | Glossary On
Versions: 1 2 3 4 5 6 7 8 9 10 11 12 13 14 15 16 17 18 19 20 21 22 23 24 25 26 27 28 29 30 31 32 33 34 35 36 37 38 39 40 41 42 43 44 45 46 47 48 49 50
000
ASUS44 KMEG 140310
RWRTN
TENNESSEE HOURLY STATE WEATHER ROUNDUP
NATIONAL WEATHER SERVICE MEMPHIS TN
900 PM CST SAT FEB 13 2016

TNZ002-004-019-021-049-052-054-088>092-140400-
WEST TENNESSEE

CITY           SKY/WX    TMP DP  RH WIND       PRES   REMARKS
MEMPHIS INTL   PTCLDY    32   9  38 NE9       30.39F WCI  24
NWS MEMPHIS      N/A     29 N/A N/A MISG        N/A
JACKSON        CLOUDY    29   5  36 E7        30.42F WCI  22
DYERSBURG      MOCLDY    28   9  43 E6        30.45S WCI  22
UNION CITY     CLOUDY    27   7  43 E8        30.43S WCI  18
PARIS          CLOUDY    25   5  42 E7        30.43F WCI  17
LEXINGTON      PTCLDY    28   1  31 NE8       30.41F WCI  20
$$

TNZ008-025-027-028-033-062-065-066-140400-
NORTH MIDDLE TENNESSEE

CITY           SKY/WX    TMP DP  RH WIND       PRES   REMARKS
NASHVILLE      CLOUDY    27   4  37 NE8       30.46F WCI  19
CLARKSVILLE    CLOUDY    25   6  44 NE9       30.46F WCI  15
SMYRNA         CLOUDY    26   6  42 NE8       30.47F WCI  18
COOKEVILLE     CLEAR     19   9  63 CALM      30.41F
CROSSVILLE     CLEAR     20   4  50 NE6       30.37F WCI  12
$$

TNZ061-075-076-078-094-096-097-140400-
SOUTH MIDDLE TENNESSEE

CITY           SKY/WX    TMP DP  RH WIND       PRES   REMARKS
FAYETTEVILLE   CLEAR     27   5  39 N10       30.40F WCI  17
TULLAHOMA      CLEAR     23   3  42 NE3       30.41F
WINCHESTER     CLEAR     23   9  54 NE5       30.42F WCI  17
MCMINNVILLE    CLEAR     21   7  53 NE5       30.42S WCI  15
COLUMBIA       CLOUDY    27   7  43 NE10      30.41F WCI  17
SHELBYVILLE    CLEAR     25   9  50 NE6       30.43F WCI  18
$$

TNZ017-018-042-046-047-140400-
NORTHEAST TENNESSEE

CITY           SKY/WX    TMP DP  RH WIND       PRES   REMARKS
TRI CITIES     CLEAR     16   3  56 CALM      30.41F
$$

TNZ012-013-036-069-073-074-140400-
CENTRAL EAST TENNESSEE

CITY           SKY/WX    TMP DP  RH WIND       PRES   REMARKS
KNOXVILLE      CLEAR     22   5  48 NE9       30.43F WCI  12
OAK RIDGE      CLEAR     24   3  40 NE5       30.46F WCI  18
GATLINBURG     CLEAR     18   7  62 CALM      30.44F
MORRISTOWN     PTCLDY    18   5  57 CALM      30.41F
$$

TNZ083-085-099-140400-
SOUTHEAST TENNESSEE

CITY           SKY/WX    TMP DP  RH WIND       PRES   REMARKS
CHATTANOOGA    PTCLDY    29   6  38 N10       30.44S WCI  20
$$

SKY/WX REPORTED AS FAIR MEANS FEW OR NO CLOUDS BELOW
12 THOUSAND FEET.




USA.gov is the U.S. government's official web portal to all federal, state and local government web resources and services.